Dewpoint
21 17 16 14 17 18 19 19 17 17 18 17 17 16 16 16 16 16 17 18 19 22 33 38 25 21 24 26 28 51 64 65 66 65 64 64 63 63 63 64 64 64 64 64
23 19 20 21 19 18 17 16 16 17 18 18 16 16 18 17 17 17 19 27 42 43 43 45 46 39 24 26 36 49 62 65 65 65 64 63 64 64 63 63 63 64 63 62
22 23 25 22 21 19 19 17 17 18 19 20 17 16 17 20 26 41 43 44 44 43 42 43 45 47 48 42 41 56 61 64 64 64 62 60 61 61 61 62 62 62 62 61
24 24 23 23 21 21 19 21 21 21 19 17 18 16 18 20 39 41 41 42 43 43 43 43 44 46 47 47 50 56 61 63 64 64 61 60 60 60 61 62 62 61 60 61
19 21 22 21 21 22 21 24 22 23 20 22 20 18 16 33 36 38 37 40 42 43 42 42 43 44 46 48 50 57 62 63 64 62 61 60 59 59 59 59 60 59 60 61
19 20 19 18 19 20 22 24 24 24 23 19 16 19 18 34 37 38 39 43 43 42 41 41 42 43 43 47 51 59 62 62 62 62 61 60 58 57 58 58 58 58 59 60
21 20 20 21 19 21 19 19 17 16 18 17 20 20 21 37 38 39 40 43 41 41 40 39 39 41 42 44 48 56 62 62 61 61 60 59 58 58 57 58 58 57 58 58
16 15 22 26 25 22 20 20 19 15 18 13 20 19 23 39 40 42 44 41 40 39 38 38 38 39 41 43 46 52 62 61 61 61 60 59 58 58 58 58 58 58 57 58
17 20 19 25 20 25 23 21 22 21 21 20 20 24 36 39 38 41 41 39 37 37 37 36 37 38 40 42 44 48 60 60 61 60 59 59 58 58 57 57 58 58 58 58
18 10 23 17 24 23 20 26 22 26 22 18 19 21 24 33 35 39 38 36 35 35 34 34 35 37 40 41 43 46 52 60 59 59 59 59 58 58 57 57 57 57 56 57
23 19 18 12 19 17 16 20 27 30 27 22 19 20 34 34 37 37 35 35 34 33 33 33 34 35 38 40 41 44 47 58 59 59 59 58 57 57 57 57 56 56 57 57
25 23 21 14 18 20 20 30 30 26 24 25 27 24 37 37 36 35 34 33 33 32 32 32 33 34 35 38 40 41 43 48 55 59 59 58 58 58 58 57 57 57 56 56
20 19 13 3 14 21 21 20 21 24 28 24 23 24 35 37 35 35 34 33 32 32 32 32 32 32 33 35 38 39 41 44 48 57 58 58 58 58 58 59 58 58 57 57
26 21 16 11 12 20 20 20 21 22 19 22 23 24 31 36 38 35 33 32 32 32 31 32 31 32 32 34 35 37 38 42 44 47 53 55 57 57 56 56 56 55 54 52
24 19 21 21 21 18 16 17 17 19 19 19 18 23 26 36 35 35 32 31 30 30 30 31 30 31 32 33 34 35 37 39 42 43 43 44 49 51 49 48 46 45 45 44
25 19 19 16 13 12 15 18 19 19 19 19 17 18 37 37 35 34 31 30 29 30 30 31 30 31 31 32 33 34 35 37 39 39 39 40 41 42 41 41 41 40 39 40
21 19 18 11 17 19 15 21 28 20 19 23 20 28 36 33 30 29 29 29 29 29 30 30 31 31 31 32 32 32 34 35 36 37 37 36 37 36 36 36 36 36 36 37
21 19 18 16 17 11 19 31 32 30 32 34 35 34 33 29 29 29 29 28 29 30 30 30 30 30 31 32 32 32 32 33 33 34 35 35 34 33 33 33 33 33 34 34
21 21 16 13 16 17 20 30 29 28 29 33 33 32 30 29 27 26 29 30 30 31 31 31 32 31 31 31 32 32 31 30 30 31 32 33 34 33 32 31 31 31 31 31
24 23 21 23 11 10 22 28 30 34 24 30 30 29 32 29 29 24 29 31 31 32 32 31 32 32 31 31 31 29 28 28 28 30 30 32 32 32 32 31 30 30 30 30
24 24 19 20 18 21 27 30 33 23 23 28 26 26 27 24 26 29 31 30 31 29 30 29 28 30 31 31 29 26 26 25 28 29 30 30 30 32 32 31 31 30 30 29
25 22 22 23 21 18 29 28 23 29 30 28 26 26 25 26 26 26 26 26 27 25 26 26 27 27 28 28 28 26 26 27 27 27 27 27 28 29 30 29 29 29 29 28
23 26 23 23 22 31 31 29 31 32 30 28 27 26 24 23 21 21 22 21 22 24 25 24 25 25 27 28 25 25 27 26 25 25 25 26 26 26 27 26 27 26 27 26
26 30 27 26 27 27 30 30 31 29 27 27 27 25 23 20 20 19 19 19 19 21 22 23 22 22 23 26 28 27 26 25 24 24 24 25 25 25 25 25 25 24 24 24
25 26 26 25 28 28 29 30 29 28 28 28 27 26 24 21 20 21 20 19 19 18 20 21 20 21 21 23 25 27 30 26 24 23 24 23 23 23 24 25 25 24 26 25
28 26 24 20 27 27 27 29 31 27 26 27 24 22 23 21 19 18 18 20 19 18 18 18 18 19 19 21 22 24 27 28 25 21 21 21 21 21 21 23 24 28 28 28
Lifted_Index
10 9 7 7 8 9 8 6 6 6 6 6 6 6 6 6 6 6 6 6 5 4 4 3 3 3 3 3 2 -2 -7 -9 -8 -8 -7 -6 -6 -6 -6 -7 -7 -7 -6 -6
8 7 7 7 8 8 7 6 5 5 5 5 5 5 5 5 6 5 5 4 4 3 3 3 3 2 2 2 1 -2 -6 -8 -8 -7 -7 -6 -6 -6 -6 -6 -7 -7 -6 -6
7 7 6 7 6 6 6 5 5 5 5 4 4 4 4 5 4 3 2 2 2 2 2 2 2 2 1 1 0 -3 -6 -7 -7 -6 -6 -6 -6 -5 -5 -6 -6 -7 -6 -6
6 6 6 6 5 5 5 5 5 5 4 4 4 3 3 4 4 2 2 2 2 2 2 1 1 0 0 0 -1 -4 -6 -7 -6 -6 -6 -6 -6 -5 -4 -5 -6 -6 -6 -5
5 5 5 5 5 5 5 5 5 5 4 4 3 3 3 4 3 2 2 2 2 2 1 0 -1 -1 -1 -2 -3 -4 -6 -6 -6 -5 -6 -6 -6 -5 -4 -5 -5 -6 -5 -5
5 5 5 5 5 5 4 4 4 4 3 3 3 3 3 3 3 2 2 2 2 2 1 0 -1 -2 -2 -3 -4 -5 -6 -6 -6 -5 -6 -6 -6 -5 -5 -4 -4 -5 -5 -4
4 4 4 4 4 4 3 3 2 2 1 2 3 3 3 2 2 2 2 2 2 2 2 1 -1 -2 -3 -4 -5 -6 -6 -6 -6 -6 -6 -7 -7 -6 -5 -4 -4 -4 -3 -3
3 3 3 4 3 3 2 2 2 1 1 2 3 3 2 1 1 1 2 2 2 2 2 1 0 -1 -3 -3 -4 -6 -7 -6 -6 -6 -6 -6 -6 -6 -5 -4 -3 -3 -2 -2
3 3 3 4 3 3 2 2 1 1 1 1 2 3 2 1 0 1 1 2 3 3 3 2 1 -1 -2 -3 -4 -5 -6 -6 -6 -5 -5 -5 -5 -5 -5 -4 -3 -2 -2 -2
4 3 4 4 4 3 2 1 1 1 1 1 1 2 1 1 0 1 1 2 2 3 3 2 1 -0 -1 -2 -3 -4 -5 -5 -5 -4 -3 -4 -4 -4 -4 -3 -3 -2 -2 -2
5 4 4 5 4 4 3 2 1 1 0 0 1 1 1 1 1 1 1 2 2 3 3 2 1 0 -1 -1 -2 -3 -4 -4 -3 -3 -3 -3 -3 -4 -3 -3 -3 -2 -2 -2
5 5 4 5 5 5 4 3 3 2 1 1 1 1 1 1 1 1 1 2 2 3 3 3 2 1 -0 -1 -1 -2 -2 -2 -2 -2 -2 -2 -2 -3 -3 -3 -3 -3 -2 -2
6 5 4 4 5 5 5 4 4 3 2 1 1 1 1 1 1 0 1 1 2 3 3 3 3 2 1 -0 -1 -1 -1 -1 -1 -1 -1 -1 -2 -2 -2 -2 -2 -2 -2 -1
6 6 5 4 5 5 5 5 5 4 3 2 2 2 2 1 1 1 1 2 2 3 3 4 4 3 3 1 0 -0 0 1 1 1 1 -0 -1 -1 -1 -2 -2 -2 -2 -1
6 6 5 5 5 5 5 5 5 4 4 3 3 2 2 2 1 1 1 2 3 3 4 4 4 4 4 3 2 1 1 1 2 2 2 1 0 -1 -1 -1 -2 -1 -1 -0
6 5 4 4 4 4 4 4 4 3 4 4 3 2 2 2 1 1 2 3 3 3 4 5 5 6 6 5 4 3 3 3 2 2 2 2 1 0 -0 -1 -1 -1 0 0
5 5 3 3 3 2 2 2 2 2 2 2 2 2 2 1 1 2 2 3 3 4 5 6 6 7 8 8 7 6 5 5 4 3 3 3 2 1 0 -0 -0 0 1 1
4 3 3 2 2 1 1 1 1 1 1 1 1 1 1 2 2 3 4 4 4 5 6 7 8 8 9 9 9 8 7 7 6 5 5 5 5 3 1 1 1 1 1 2
2 2 2 1 1 1 1 1 1 1 0 0 0 1 2 3 4 5 6 6 6 7 8 9 9 10 10 10 11 10 9 8 8 7 7 7 7 6 4 3 2 2 2 2
2 1 1 1 1 1 1 1 1 1 1 1 2 2 3 4 4 5 7 7 8 9 10 10 11 11 11 11 11 11 10 10 9 9 9 9 9 8 8 7 6 5 5 5
1 1 1 1 1 1 2 2 2 1 2 3 3 3 4 4 5 6 7 8 9 10 11 11 11 11 12 12 12 11 11 11 11 12 11 11 11 11 10 10 9 9 8 8
1 1 1 1 1 2 2 3 3 3 4 4 4 4 5 5 5 6 7 8 9 10 11 11 11 11 12 13 12 11 11 13 13 13 12 12 12 12 12 11 11 11 10 10
1 1 1 1 2 3 4 5 5 5 5 5 5 5 6 5 6 7 7 8 9 10 11 11 11 11 12 13 13 12 13 14 14 13 13 13 13 13 13 13 12 12 12 11
2 2 2 2 3 4 5 5 6 6 6 6 6 6 6 6 6 7 8 9 10 10 11 12 12 11 12 13 14 14 14 15 14 13 13 14 14 14 14 14 14 14 14 13
3 2 2 2 3 4 4 5 6 6 6 6 7 7 7 7 7 8 9 9 10 11 12 12 12 12 13 14 15 15 16 15 14 14 14 14 15 15 15 15 15 15 16 16
3 3 3 3 3 3 4 5 5 6 6 6 7 7 7 8 8 8 9 10 11 11 12 12 13 13 13 14 15 16 16 16 15 14 14 14 15 15 15 15 15 16 17 18